Starlink 32658

operational
NORAD ID: 62999 Int'l Des: 2025-031 Owner: SPXS Country: US Constellation: starlink
LEOCIRCULAR

Starlink 32658について

説明を読み込み中...

リアルタイム位置

3D地球を読み込み中...

次回通過

高度履歴

Altitude vs Time

uPlot chart will show altitude changes over time

軌道要素

1 62999U 25031U 26035.19073112 .00042132 00000-0 15312-2 0 9992
2 62999 43.0022 332.3767 0001448 275.4592 84.6095 15.27592915 55974
Epoch: Feb 4, 2026 • Age: 15 hours

現在のステータス

高度 484.4 km
速度 7.63 km/s
衛星直下点 30.61°N, 45.71°E
打ち上げ日 Feb 11, 2025
運用期間 0.9 years
タイプ internet

技術仕様

分類 Payload
質量 730.00 kg
乾燥質量 700.00 kg
総質量 730.00 kg
長さ 0.30 m
直径 4.10 m
スパン 29.00 m
形状 Box + pan
製造者 SPXS
バスタイプ Starlink V2M
フェーズステータス In Orbit
所有者/国 SPXS/US

大規模コンステレーション

Loading constellations...